Location: Lake Sonoma
(38.7200°N, 123.0564°W)
Time: 10:26:54
(UTC-07:00)

Amateur Radio Satellites - All Passes

Search period start: 22 July 2014 09:56
Search period end: 23 July 2014 09:56
Location: Lake Sonoma, 38.7200°N, 123.0564°W

Satellite Date Start Highest point End Downlink Frequencies (MHz)
Time Altitude Azimuth
HO-68 22 Jul 09:57:03 10:03:58 50° 101° (E) 10:10:49 435.675 MHz FM
KITSAT 1 22 Jul 10:05:56 10:12:27 26° 318° (NW) 10:19:00 435.175 FM
Oscar 11 22 Jul 10:08:53 10:12:08 21° 94° (E) 10:15:23 145.825 FM, Beacon 2401.500 USB
Saudisat 1A 22 Jul 10:11:35 10:15:58 65° 303° (WNW) 10:20:22 436.775 MHz
MaSat-1 22 Jul 10:23:10 10:26:28 17° 259° (W) 10:29:41 437.345 MHz
PANSAT 22 Jul 10:34:13 10:36:51 18° 181° (S) 10:39:29 not established
PCSat 22 Jul 10:36:42 10:40:05 16° 45° (NE) 10:43:27 145.825 MHz
Oscar 11 22 Jul 11:44:31 11:48:21 32° 289° (WNW) 11:52:11 145.825 FM, Beacon 2401.500 USB
Sapphire 22 Jul 11:44:35 11:49:51 49° 57° (ENE) 11:55:05 437.095 MHz 1200 baud AX-25 AFSK
FUNcube-1 22 Jul 11:45:06 11:49:17 88° 283° (WNW) 11:53:27 145.950 - 145.970 MHz USB
HO-68 22 Jul 11:45:18 11:51:21 31° 298° (WNW) 11:57:22 435.675 MHz FM
PANSAT 22 Jul 12:14:48 12:16:22 12° 194° (SSW) 12:17:57 not established
PCSat 22 Jul 12:18:43 12:24:09 80° 244° (WSW) 12:29:33 145.825 MHz
JAS-1B 22 Jul 12:45:49 12:48:44 12° 45° (NE) 12:51:44 435.800 - 435.900 CW/SSB
Oscar 19 22 Jul 13:11:02 13:15:23 29° 68° (ENE) 13:19:45 437.125 CW, 437.150 USB
SO-50 22 Jul 13:24:30 13:25:56 11° 107° (ESE) 13:27:23 436.795 FM
Sapphire 22 Jul 13:28:53 13:32:53 21° 254° (WSW) 13:36:53 437.095 MHz 1200 baud AX-25 AFSK
Oscar 16 22 Jul 13:37:22 13:42:21 55° 73° (ENE) 13:47:20 437.025 USB, Beacon 2401.1428
ITAMSAT 1 22 Jul 13:43:53 13:48:18 29° 67° (ENE) 13:52:43 435.822 SSB
Gurwin Techsat 1B 22 Jul 13:45:55 13:47:52 12° 60° (ENE) 13:49:48 435.225 FM
AO-27 22 Jul 14:00:35 14:05:28 42° 70° (ENE) 14:10:22 436.795 MHz FM
Uribyol 2 22 Jul 14:04:33 14:09:31 47° 71° (ENE) 14:14:30 436.500 FM
RS-15 22 Jul 14:05:06 14:15:10 41° 108° (ESE) 14:24:59 29.354 - 29.394 USB, Beacon 29.352 USB
KITSAT 1 22 Jul 14:11:05 14:11:51 10° 19° (NNE) 14:12:36 435.175 FM
AO-7 22 Jul 14:15:10 14:16:37 11° 44° (NE) 14:18:03 29.400 - 29.500 MHz
AO-Echo 22 Jul 14:22:49 14:28:01 68° 74° (ENE) 14:33:19 ?
JAS-1B 22 Jul 14:28:45 14:36:46 52° 66° (ENE) 14:45:55 435.800 - 435.900 CW/SSB
Oscar 19 22 Jul 14:50:08 14:54:37 31° 263° (W) 14:59:09 437.125 CW, 437.150 USB
SO-50 22 Jul 15:01:26 15:05:51 67° 303° (WNW) 15:10:23 436.795 FM
TMSAT-1 22 Jul 15:02:22 15:07:23 45° 71° (ENE) 15:12:25 436.925 FM
Oscar 16 22 Jul 15:18:54 15:22:01 16° 268° (W) 15:25:08 437.025 USB, Beacon 2401.1428
Gurwin Techsat 1B 22 Jul 15:21:44 15:27:03 86° 256° (WSW) 15:32:24 435.225 FM
ITAMSAT 1 22 Jul 15:22:59 15:27:39 33° 263° (W) 15:32:21 435.822 SSB
AO-27 22 Jul 15:41:05 15:45:07 22° 266° (W) 15:49:10 436.795 MHz FM
Uribyol 2 22 Jul 15:45:30 15:49:12 20° 267° (W) 15:52:55 436.500 FM
AO-7 22 Jul 15:59:28 16:07:26 52° 65° (ENE) 16:15:25 29.400 - 29.500 MHz
UOSAT-12 22 Jul 16:02:00 16:06:08 35° 114° (ESE) 16:10:23 437.025 FM, 437.400 FM
KITSAT 1 22 Jul 16:03:13 16:10:21 33° 47° (NE) 16:17:25 435.175 FM
AO-Echo 22 Jul 16:04:35 16:07:14 14° 270° (W) 16:09:55 ?
Uosat F 22 Jul 16:14:01 16:18:53 50° 72° (ENE) 16:23:46 435.120 FM
RS-15 22 Jul 16:16:14 16:27:06 57° 309° (NW) 16:37:50 29.354 - 29.394 USB, Beacon 29.352 USB
JAS-1B 22 Jul 16:19:54 16:27:25 38° 267° (W) 16:36:02 435.800 - 435.900 CW/SSB
OPAL 22 Jul 16:41:59 16:46:34 34° 100° (E) 16:51:11 ?
TMSAT-1 22 Jul 16:43:32 16:47:29 21° 267° (W) 16:51:27 436.925 FM
SO-50 22 Jul 16:47:09 16:47:19 10° 323° (NW) 16:47:29 436.795 FM
JAS-2 22 Jul 17:09:46 17:15:11 21° 60° (ENE) 17:20:29 435.800 - 435.900 CW/SSB, 435.910 FM
UOSAT-12 22 Jul 17:42:26 17:46:20 27° 311° (NW) 17:50:19 437.025 FM, 437.400 FM
AO-7 22 Jul 17:52:59 18:00:22 35° 262° (W) 18:07:49 29.400 - 29.500 MHz
Uosat F 22 Jul 17:54:38 17:57:55 17° 267° (W) 18:01:14 435.120 FM
KITSAT 1 22 Jul 17:58:16 18:06:11 61° 247° (WSW) 18:14:03 435.175 FM
OPAL 22 Jul 18:21:07 18:25:17 27° 295° (WNW) 18:29:29 ?
Hamsat 22 Jul 18:25:25 18:29:35 80° 77° (ENE) 18:33:46 145.90 MHz
RS-15 22 Jul 18:35:00 18:42:36 20° 338° (NNW) 18:50:13 29.354 - 29.394 USB, Beacon 29.352 USB
Saudisat 1A 22 Jul 18:39:34 18:43:58 67° 57° (ENE) 18:48:20 436.775 MHz
JAS-2 22 Jul 18:51:28 18:59:21 84° 256° (WSW) 19:07:02 435.800 - 435.900 CW/SSB, 435.910 FM
STRAND 1 22 Jul 18:54:37 18:57:55 17° 93° (E) 19:01:11 ?
SO-67 22 Jul 18:54:54 18:57:33 21° 71° (ENE) 19:00:12 435.3500 MHz FM
Saudisat 1A 22 Jul 20:21:36 20:22:58 11° 253° (WSW) 20:24:19 436.775 MHz
HO-68 22 Jul 20:24:34 20:30:48 33° 63° (ENE) 20:37:01 435.675 MHz FM
SO-67 22 Jul 20:27:59 20:30:32 19° 265° (W) 20:33:05 435.3500 MHz FM
STRAND 1 22 Jul 20:32:25 20:37:23 52° 288° (WNW) 20:42:18 ?
JAS-2 22 Jul 20:40:58 20:45:09 15° 272° (W) 20:49:19 435.800 - 435.900 CW/SSB, 435.910 FM
RS-15 22 Jul 20:53:56 21:00:59 18° 16° (NNE) 21:08:06 29.354 - 29.394 USB, Beacon 29.352 USB
Oscar 11 22 Jul 21:03:48 21:06:11 15° 65° (ENE) 21:08:34 145.825 FM, Beacon 2401.500 USB
SO-50 22 Jul 21:55:51 21:57:31 12° 39° (NE) 21:59:11 436.795 FM
HO-68 22 Jul 22:11:26 22:18:15 46° 260° (W) 22:25:06 435.675 MHz FM
MaSat-1 22 Jul 22:35:32 22:38:48 29° 105° (ESE) 22:42:33 437.345 MHz
Oscar 11 22 Jul 22:37:49 22:41:58 47° 261° (W) 22:46:08 145.825 FM, Beacon 2401.500 USB
FUNcube-1 22 Jul 22:39:59 22:44:21 62° 75° (ENE) 22:48:38 145.950 - 145.970 MHz USB
RS-15 22 Jul 23:06:39 23:17:10 47° 47° (NE) 23:27:58 29.354 - 29.394 USB, Beacon 29.352 USB
SO-50 22 Jul 23:34:07 23:38:53 74° 58° (ENE) 23:43:42 436.795 FM
Lituanica SAT-1 22 Jul 23:57:13 23:58:13 12° 132° (SE) 23:59:14 437.275 MHz beacon
MaSat-1 23 Jul 00:12:58 00:16:10 23° 307° (NW) 00:19:48 437.345 MHz
FUNcube-1 23 Jul 00:20:14 00:21:05 11° 269° (W) 00:21:56 145.950 - 145.970 MHz USB
UOSAT-12 23 Jul 00:32:53 00:36:45 24° 48° (NE) 00:40:34 437.025 FM, 437.400 FM
SO-50 23 Jul 01:17:05 01:18:51 12° 253° (WSW) 01:20:37 436.795 FM
PCSat 23 Jul 01:18:24 01:21:30 16° 104° (ESE) 01:24:36 145.825 MHz
RS-15 23 Jul 01:19:07 01:29:39 53° 249° (WSW) 01:40:37 29.354 - 29.394 USB, Beacon 29.352 USB
Oscar 19 23 Jul 01:26:23 01:27:31 11° 89° (E) 01:28:38 437.125 CW, 437.150 USB
Lituanica SAT-1 23 Jul 01:29:05 01:30:58 25° 327° (NNW) 01:32:53 437.275 MHz beacon
Oscar 16 23 Jul 01:51:09 01:55:04 22° 94° (E) 01:58:58 437.025 USB, Beacon 2401.1428
ITAMSAT 1 23 Jul 02:01:15 02:01:42 10° 89° (E) 02:02:09 435.822 SSB
UOSAT-12 23 Jul 02:12:37 02:17:03 41° 245° (WSW) 02:21:24 437.025 FM, 437.400 FM
ISS 23 Jul 02:15:02 02:18:22 77° 139° (SE) 02:21:44 145.800 FM
AO-27 23 Jul 02:16:12 02:19:23 16° 92° (E) 02:22:33 436.795 MHz FM
JAS-1B 23 Jul 02:18:38 02:24:28 18° 84° (E) 02:29:52 435.800 - 435.900 CW/SSB
Uribyol 2 23 Jul 02:19:40 02:23:12 18° 93° (E) 02:26:42 436.500 FM
Sapphire 23 Jul 02:24:52 02:30:10 60° 114° (ESE) 02:35:30 437.095 MHz 1200 baud AX-25 AFSK
AO-Echo 23 Jul 02:32:30 02:36:38 24° 94° (E) 02:40:39 ?
PCSat 23 Jul 02:58:56 03:04:18 65° 300° (WNW) 03:09:42 145.825 MHz
Oscar 19 23 Jul 03:02:14 03:07:25 80° 285° (WNW) 03:12:34 437.125 CW, 437.150 USB
TMSAT-1 23 Jul 03:20:23 03:24:12 20° 93° (E) 03:27:58 436.925 FM
Oscar 16 23 Jul 03:29:43 03:34:33 42° 289° (WNW) 03:39:23 437.025 USB, Beacon 2401.1428
ITAMSAT 1 23 Jul 03:36:35 03:41:48 83° 285° (WNW) 03:46:57 435.822 SSB
Gurwin Techsat 1B 23 Jul 03:39:33 03:44:35 42° 99° (E) 03:49:35 435.225 FM
ISS 23 Jul 03:53:03 03:55:27 18° 337° (NNW) 03:57:51 145.800 FM
AO-27 23 Jul 03:54:09 03:59:14 56° 288° (WNW) 04:04:16 436.795 MHz FM
OPAL 23 Jul 03:55:42 04:00:31 54° 70° (ENE) 04:05:20 ?
Uribyol 2 23 Jul 03:57:57 04:02:55 49° 289° (WNW) 04:07:51 436.500 FM
AO-7 23 Jul 04:04:40 04:09:21 16° 90° (E) 04:14:00 29.400 - 29.500 MHz
JAS-1B 23 Jul 04:06:36 04:16:22 86° 105° (ESE) 04:24:48 435.800 - 435.900 CW/SSB
Sapphire 23 Jul 04:09:59 04:14:00 21° 312° (NW) 04:18:01 437.095 MHz 1200 baud AX-25 AFSK
AO-Echo 23 Jul 04:10:46 04:15:28 36° 291° (WNW) 04:20:01 ?
Uosat F 23 Jul 04:24:18 04:27:32 17° 93° (E) 04:30:45 435.120 FM
PCSat 23 Jul 04:47:11 04:48:47 11° 320° (NW) 04:50:24 145.825 MHz
TMSAT-1 23 Jul 04:59:16 05:04:20 47° 289° (WNW) 05:09:22 436.925 FM
Gurwin Techsat 1B 23 Jul 05:20:08 05:24:16 23° 294° (WNW) 05:28:22 435.225 FM
ITAMSAT 1 23 Jul 05:20:15 05:20:26 10° 301° (WNW) 05:20:36 435.822 SSB
OPAL 23 Jul 05:36:44 05:39:42 16° 265° (W) 05:42:40 ?
AO-7 23 Jul 05:54:44 06:03:08 88° 108° (ESE) 06:11:27 29.400 - 29.500 MHz
JAS-1B 23 Jul 05:58:24 06:05:29 24° 305° (NW) 06:12:05 435.800 - 435.900 CW/SSB
Uosat F 23 Jul 06:01:44 06:06:36 50° 288° (WNW) 06:11:25 435.120 FM
JAS-2 23 Jul 06:07:09 06:09:29 12° 86° (E) 06:11:44 435.800 - 435.900 CW/SSB, 435.910 FM
STRAND 1 23 Jul 06:09:10 06:13:09 23° 66° (ENE) 06:17:08 ?
Lituanica SAT-1 23 Jul 06:11:51 06:12:25 11° 25° (NNE) 06:13:00 437.275 MHz beacon
Hamsat 23 Jul 06:13:40 06:16:18 16° 93° (E) 06:18:56 145.90 MHz
KITSAT 1 23 Jul 06:31:43 06:37:41 23° 103° (ESE) 06:43:39 435.175 FM
MaSat-1 23 Jul 06:57:23 06:58:08 10° 44° (NE) 06:58:53 437.345 MHz
ISS 23 Jul 07:09:21 07:11:15 14° 18° (NNE) 07:13:08 145.800 FM
Lituanica SAT-1 23 Jul 07:43:24 07:45:33 56° 221° (SW) 07:47:42 437.275 MHz beacon
STRAND 1 23 Jul 07:47:14 07:52:04 41° 261° (W) 07:56:55 ?
Hamsat 23 Jul 07:48:25 07:52:25 40° 287° (WNW) 07:56:27 145.90 MHz
AO-7 23 Jul 07:49:08 07:54:52 21° 307° (NW) 08:00:34 29.400 - 29.500 MHz
JAS-2 23 Jul 07:49:15 07:55:32 79° 285° (WNW) 08:01:04 435.800 - 435.900 CW/SSB, 435.910 FM
SO-67 23 Jul 07:52:27 07:55:32 29° 97° (E) 07:58:35 435.3500 MHz FM
KITSAT 1 23 Jul 08:24:12 08:32:17 72° 301° (WNW) 08:40:24 435.175 FM
PANSAT 23 Jul 08:30:16 08:32:22 14° 169° (S) 08:34:28 not established
MaSat-1 23 Jul 08:31:16 08:36:35 62° 63° (ENE) 08:41:40 437.345 MHz
ISS 23 Jul 08:45:12 08:48:33 61° 36° (NE) 08:51:52 145.800 FM
Saudisat 1A 23 Jul 08:45:35 08:49:06 24° 112° (ESE) 08:52:37 436.775 MHz
SO-67 23 Jul 09:26:25 09:28:20 14° 292° (WNW) 09:30:15 435.3500 MHz FM
JAS-2 23 Jul 09:37:28 09:39:19 11° 306° (NW) 09:41:07 435.800 - 435.900 CW/SSB, 435.910 FM
HO-68 23 Jul 09:40:26 09:46:58 38° 98° (E) 09:53:28 435.675 MHz FM
